Location: Lecco
(45.8566°N, 9.3977°E)
Time: 04:56:05
(UTC+02:00)

Transit 4A - Pass Details

Date: 16 August 2020
Orbit: 863 x 982 km, 66.8° (Epoch: 23 September)

Event Time Altitude Azimuth Distance (km) Brightness Sun altitude
Rises 19:07:28 0° 319° (NW) 3,669 11.8 12.9°
Reaches altitude 10° 19:10:20 10° 309° (NW) 2,728 11.5 12.4°
Maximum altitude 19:15:41 29° 252° (WSW) 1,716 10.6 11.5°
Drops below altitude 10° 19:21:02 10° 195° (SSW) 2,725 10.5 10.5°
Sets 19:23:55 0° 184° (S) 3,664 11.0 10.0°
